Other Surface Observations
Issued by NWS Charleston, SC

Home | Current Version | Previous Version | Text Only | Print | Product List | Glossary On
Versions: 1 2 3 4 5 6 7 8 9 10 11 12 13 14 15 16 17 18 19 20 21 22 23 24 25 26 27 28 29 30 31 32 33 34 35 36 37 38 39 40 41 42 43 44 45 46 47 48 49 50
625
SXUS52 KCHS 282012
OSOCHS

MARINE OBSERVATIONS
NATIONAL WEATHER SERVICE CHARLESTON SC
400 PM EDT TUE MAR 28 2017

...DOWNTOWN CHARLESTON AND HARBOR...

CITY           SKY/WX    TMP DP  RH WIND       PRES   REMARKS
WATERFRONT PRK   N/A     73  64  73 SW15      29.90F

...LAKE MOULTRIE...

CITY           SKY/WX    TMP DP  RH WIND       PRES   REMARKS
PINOPOLIS        N/A     75  61  60 W12       29.83F

...LAKE AND SUPPLEMENTAL COASTAL OBSERVATIONS...

STATION/POSITION TIME  TEMP    WIND        PRES    WAVE   SWELL
                       AIR SEA DIR/SP/G            HT/PER HT/PER/DIR
                 (UTC) (F)     (DEG/KT/KT) (MB)    (FT/S) (FT/S/D)
FORT PULASKI     1948   77 65  190/  6/ 12 1014.0F
SAPELO ISLAND    1900   81     250/  9     1015.0
WINYAH BAY       NOT AVBL
LAKE MURRAY      1920   77     220/ 11/ 14 1012.2
ACE BASIN NERRS  1845   80     190/  3     1014.0


...C-MAN AND BUOY OBSERVATIONS...

STATION/POSITION TIME  TEMP    WIND        PRES    WAVE   SWELL
                       AIR SEA DIR/SP/G            HT/PER HT/PER/DIR
                 (UTC) (F)     (DEG/KT/KT) (MB)    (FT/S) (FT/S/D)
BUOY 41004       NOT AVBL
BUOY 41008       NOT AVBL
FOLLY BEACH CMAN 2000   67     200/ 11/ 13 1013.9F
CAPERS NS BUOY   NOT AVBL
FRIPP NS BUOY    NOT AVBL
5E ST. MARYS GA  NOT AVBL


STATION/POSITION TIME  TEMP    WIND        PRES    WAVE   SWELL
                       AIR SEA DIR/SP/G            HT/PER HT/PER/DIR
                 (UTC) (F)     (DEG/KT/KT) (MB)    (FT/S) (FT/S/D)
FRYING PAN BUOY  NOT AVBL
BUOY 41025       NOT AVBL
CAPE LOOKOUT NC  2000   70     210/ 10/ 13 1012.3F
BUOY 41002       NOT AVBL
BUOY 41010       NOT AVBL
ST AUGUSTINE FL  2000   70 69  140/ 10/ 11 1016.2F

$$




USA.gov is the U.S. government's official web portal to all federal, state and local government web resources and services.